Regional Weather Roundup
Issued by NWS

Home | Current Version | Previous Version | Text Only | Print | Product List | Glossary Off
Versions: 1 2 3 4 5 6 7 8 9 10 11 12 13 14 15 16 17 18 19 20 21 22 23 24 25 26 27 28 29 30 31 32 33 34 35 36 37 38 39 40 41 42 43 44 45 46 47 48 49 50

371
ASUS43 KLMK 182310
RWRKY
KENTUCKY REGIONAL WEATHER ROUNDUP
NATIONAL WEATHER SERVICE LOUISVILLE KY
600 PM EST WED JAN 18 2017

NOTE "FAIR" INDICATES FEW OR NO CLOUDS BELOW 12,000 FEET
WITH NO SIGNIFICANT WEATHER AND/OR OBSTRUCTIONS TO VISIBILITY.

KYZ001>023-026-027-061>063-070>075-190000-
WESTERN AND SOUTH CENTRAL KENTUCKY

CITY           SKY/WX    TMP DP  RH WIND       PRES   REMARKS
PADUCAH        MOCLDY    45  38  76 E5        30.12F
HENDERSON      CLOUDY    43  34  70 SE5       30.15S
OWENSBORO      CLOUDY    42  37  82 CALM      30.17R
HOPKINSVILLE   PTCLDY    46  40  78 CALM      30.14S
BOWLING GREEN  PTCLDY    47  37  68 CALM      30.15F
GLASGOW        MOCLDY    46  39  77 CALM      30.14S
$$

KYZ024-025-028>034-038-045-046-053-190000-
NORTH CENTRAL KENTUCKY

CITY           SKY/WX    TMP DP  RH WIND       PRES   REMARKS
LOUISVILLE/SDF CLOUDY    44  34  67 CALM      30.14F
LOUISVILLE/LOU CLOUDY    44  35  70 SW3       30.16R
FORT KNOX      CLOUDY    41  35  80 CALM      30.13S
$$

KYZ035>037-039>044-047>052-055>060-089>105-190000-
NORTHEAST KENTUCKY

CITY           SKY/WX    TMP DP  RH WIND       PRES   REMARKS
LEXINGTON      CLOUDY    43  36  76 SW5       30.14F
COVINGTON      CLOUDY    40  36  86 SW6       30.12F
FRANKFORT      CLOUDY    43  35  73 SW6       30.14F
$$

KYZ054-064>069-076>088-106>120-190000-
SOUTHEAST KENTUCKY

CITY           SKY/WX    TMP DP  RH WIND       PRES   REMARKS
JACKSON        CLOUDY    44  37  76 CALM      30.14S
LONDON         PTCLDY    46  36  68 NE3       30.13R
SOMERSET       PTCLDY    45  36  70 CALM      30.15S
MIDDLESBORO    CLOUDY    47  39  72 CALM      30.14R
MONTICELLO     PTCLDY    43  39  86 CALM      30.15F
$$





USA.gov is the U.S. government's official web portal to all federal, state and local government web resources and services.